Location: *
(58.7167°N, 26.1833°E)
Time: 03:55:10
(UTC+00:00)

Cosmos 389 Rocket - Pass Details

Date: 25 August 2019
Orbit: 444 x 479 km, 81.1° (Epoch: 21 September)

Event Time Altitude Azimuth Distance (km) Brightness Sun altitude
Rises 21:10:59 0° 343° (NNW) 2,526 7.9 -19.4°
Reaches altitude 10° 21:13:06 10° 342° (NNW) 1,638 6.5 -19.4°
Maximum altitude 21:16:41 80° 256° (WSW) 479 2.4 -19.6°
Enters shadow 21:17:02 69° 195° (SSW) 501 2.3 -19.6°
